Location: Maiden
(35.5760°N, 81.2120°W)
Time: 02:28:11
(UTC-04:00)

Vanguard 2 - Pass Details

Date: 07 August 2020
Orbit: 553 x 2937 km, 32.9° (Epoch: 20 September)

Event Time Altitude Azimuth Distance (km) Brightness Sun altitude
Rises 01:15:51 0° 267° (W) 6,090 12.1 -38.0°
Reaches altitude 10° 01:20:25 10° 266° (W) 4,748 11.5 -38.1°
Enters shadow 01:27:31 36° 261° (W) 2,609 10.0 -38.1°
Maximum altitude 01:32:45 76° 184° (S) 1,511 - -38.1°
Drops below altitude 10° 01:39:52 10° 99° (E) 2,859 - -38.1°
Sets 01:42:00 0° 98° (E) 3,589 - -38.1°
